Location: Rancho Del Sol Observatory
(38.7214°N, 120.6350°W)
Time: 13:57:48
(UTC-08:00)

A-11 Canister half - Pass Details

Date: 03 February 2020
Orbit: 1517 x 1683 km, 47.2° (Epoch: 19 February)

Event Time Altitude Azimuth Distance (km) Brightness Sun altitude
Rises 05:31:34 0° 292° (WNW) 4,663 - -18.9°
Reaches altitude 10° 05:35:40 10° 276° (W) 3,676 - -18.1°
Exits shadow 05:39:42 18° 250° (WSW) 3,072 10.1 -17.3°
Maximum altitude 05:41:41 20° 234° (SW) 2,991 10.1 -16.9°
Drops below altitude 10° 05:47:46 10° 193° (SSW) 3,698 11.0 -15.7°
Sets 05:51:57 0° 177° (S) 4,699 11.7 -14.9°
